Location: Schommer Observatory
(40.5200°N, 74.4500°W)
Time: 15:34:52
(UTC-04:00)

OTV 5 (USA 277) - Visible Passes

Search period start: 23 September 2018 00:00
Search period end: 03 October 2018 00:00
Orbit: 387 x 394 km, 54.5° (Epoch: 08 September)

Date Brightness Start Highest point End Pass type
(mag) Time Alt. Az. Time Alt. Az. Time Alt. Az.
24 Sep ? 05:58:51 10° SSE 06:00:25 13° SE 06:01:59 10° E visible
26 Sep ? 05:40:44 10° S 05:43:26 25° SE 05:46:08 10° ENE visible
27 Sep ? 04:46:29 10° SE 04:47:20 11° SE 04:48:21 10° ESE visible
27 Sep ? 06:19:40 10° WSW 06:22:51 62° NW 06:26:01 10° NE visible
28 Sep ? 05:25:17 31° SSW 05:26:31 53° SE 05:29:40 10° ENE visible
29 Sep ? 04:31:32 18° E 04:31:32 18° E 04:32:52 10° ENE visible
29 Sep ? 06:03:56 15° W 06:06:07 33° NW 06:09:04 10° NNE visible
30 Sep ? 05:10:04 62° NNE 05:10:04 62° NNE 05:12:53 10° NE visible
01 Oct ? 04:16:05 13° ENE 04:16:05 13° ENE 04:16:28 10° ENE visible
01 Oct ? 05:48:30 18° NW 05:49:27 20° NNW 05:51:58 10° NNE visible
02 Oct ? 04:54:26 22° NNE 04:54:26 22° NNE 04:55:57 10° NE visible
